Oxford, NC

4:45 AM EDT on June 24, 2017 (GMT -0400)
Henderson-Oxford

Weather History for KHNZ - June, 2014

Change the Weather History Date:

Tuesday, June 17, 2014

  Actual Average (KTDF) Record (KTDF)
Temperature  
Mean Temperature 82 °F -  
Max Temperature 94 °F 85 °F 96 °F (1981)
Min Temperature 69 °F 62 °F 50 °F (1959)
Cooling Degree Days 16    
Growing Degree Days 32 (Base 50)    
Moisture  
Dew Point 65 °F    
Average Humidity 59    
Maximum Humidity 91    
Minimum Humidity 29    
Precipitation  
Precipitation 0.00 in - - ()
Sea Level Pressure  
Sea Level Pressure 30.12 in    
Wind  
Wind Speed 5 mph (SW)    
Max Wind Speed 10 mph    
Max Gust Speed 18 mph    
Visibility 10 miles    
Events      
Averages and records for this station are not official NWS values.
T = Trace of Precipitation, MM = Missing Value Source: NWS Daily Summary

Daily Weather History Graph

Daily Weather History Graph

Search for Another Location

Airport or City:

Trip Planner

Search our weather history database for the weather conditions in past years. The results will help you decide how hot, cold, wet, or windy it might be!

Date:

Astronomy

Jun. 17, 2014 Rise Set
Actual Time 5:55 AM EDT 8:34 PM EDT
Civil Twilight 5:25 AM EDT 9:04 PM EDT
Nautical Twilight 4:47 AM EDT 9:42 PM EDT
Astronomical Twilight 4:05 AM EDT 10:24 PM EDT
Moon No Moon Rise 11:00 AM EDT (6/17)
Length of Visible Light 15h 39m
Length of Day
14h 38m
Waning Gibbous, 73% of the Moon is Illuminated
Jun 17
Waning Gibbous
Jun 19
Last Quarter
Jun 27
New
Jul 5
First Quarter
Jul 12
Full

Hourly Weather History & Observations

Time (EDT) Temp. Heat Index Dew Point Humidity Pressure Visibility Wind Dir Wind Speed Gust Speed Precip Events Conditions
12:15 AM 72.1 °F - 65.1 °F 78% 30.13 in 10.0 mi SSW 5.8 mph - N/A   Clear
12:35 AM 73.4 °F - 65.5 °F 76% 30.13 in 10.0 mi Calm Calm - N/A   Clear
12:55 AM 73.2 °F - 65.5 °F 77% 30.13 in 10.0 mi SSE 3.5 mph - N/A   Clear
1:15 AM 73.6 °F - 65.8 °F 77% 30.13 in 10.0 mi South 5.8 mph - N/A   Clear
1:35 AM 74.3 °F - 65.3 °F 73% 30.13 in 10.0 mi SW 5.8 mph - N/A   Clear
2:15 AM 73.0 °F - 65.3 °F 77% 30.12 in 10.0 mi SSW 4.6 mph - N/A   Clear
2:35 AM 72.3 °F - 65.3 °F 78% 30.12 in 10.0 mi SSW 4.6 mph - N/A   Clear
2:55 AM 71.8 °F - 65.1 °F 79% 30.12 in 10.0 mi SW 4.6 mph - N/A   Clear
3:15 AM 71.4 °F - 65.3 °F 81% 30.11 in 10.0 mi SSW 4.6 mph - N/A   Clear
3:35 AM 71.6 °F - 65.3 °F 80% 30.11 in 10.0 mi SSW 3.5 mph - N/A   Clear
3:55 AM 70.0 °F - 65.7 °F 86% 30.11 in 10.0 mi SSW 4.6 mph - N/A   Clear
4:15 AM 70.7 °F - 66.4 °F 86% 30.12 in 10.0 mi SSW 5.8 mph - N/A   Clear
4:35 AM 70.7 °F - 66.4 °F 86% 30.12 in 10.0 mi SSW 6.9 mph - N/A   Clear
4:55 AM 70.2 °F - 66.4 °F 88% 30.12 in 10.0 mi SW 5.8 mph - N/A   Clear
5:15 AM 69.8 °F - 66.4 °F 89% 30.13 in 10.0 mi SW 6.9 mph - N/A   Clear
5:35 AM 69.4 °F - 66.4 °F 90% 30.13 in 7.0 mi SW 5.8 mph - N/A   Clear
5:55 AM 69.6 °F - 66.6 °F 90% 30.13 in 7.0 mi SW 6.9 mph - N/A   Clear
6:15 AM 69.8 °F - 67.1 °F 91% 30.14 in 7.0 mi SSW 6.9 mph - N/A   Clear
6:35 AM 70.2 °F - 67.1 °F 90% 30.14 in 7.0 mi SW 6.9 mph - N/A   Clear
6:55 AM 71.2 °F - 67.5 °F 88% 30.15 in 7.0 mi SW 6.9 mph - N/A   Clear
7:15 AM 72.9 °F - 67.3 °F 83% 30.16 in 10.0 mi SW 6.9 mph - N/A   Clear
7:35 AM 74.3 °F - 67.3 °F 79% 30.16 in 10.0 mi SW 6.9 mph - N/A   Clear
7:55 AM 75.9 °F - 66.7 °F 73% 30.16 in 10.0 mi SW 8.1 mph - N/A   Clear
8:35 AM 79.0 °F - 66.7 °F 66% 30.16 in 10.0 mi WSW 5.8 mph - N/A   Clear
8:55 AM 80.2 °F 82.5 °F 66.4 °F 63% 30.16 in 10.0 mi WSW 8.1 mph - N/A   Clear
9:15 AM 81.7 °F 84.0 °F 66.4 °F 60% 30.17 in 10.0 mi WSW 5.8 mph - N/A   Clear
9:35 AM 83.1 °F 85.7 °F 66.9 °F 58% 30.17 in 10.0 mi West 4.6 mph - N/A   Clear
9:55 AM 83.8 °F 86.0 °F 65.8 °F 55% 30.16 in 10.0 mi WSW 6.9 mph - N/A   Clear
10:15 AM 85.5 °F 87.6 °F 66.2 °F 52% 30.16 in 10.0 mi WSW 6.9 mph - N/A   Clear
10:35 AM 86.2 °F 88.4 °F 66.4 °F 51% 30.15 in 10.0 mi WSW 6.9 mph - N/A   Clear
10:55 AM 87.6 °F 90.1 °F 66.6 °F 49% 30.15 in 10.0 mi WSW 5.8 mph - N/A   Clear
11:15 AM 88.5 °F 91.6 °F 66.9 °F 49% 30.16 in 10.0 mi WNW 4.6 mph - N/A   Clear
11:35 AM 88.7 °F 91.1 °F 66.2 °F 47% 30.16 in 10.0 mi WSW 4.6 mph - N/A   Clear
11:55 AM 89.2 °F 91.3 °F 65.7 °F 45% 30.14 in 10.0 mi Calm Calm - N/A   Clear
12:15 PM 90.1 °F 93.1 °F 67.1 °F 46% 30.14 in 10.0 mi SW 6.9 mph - N/A   Clear
12:35 PM 90.9 °F 94.0 °F 66.9 °F 45% 30.14 in 10.0 mi SW 6.9 mph - N/A   Clear
12:55 PM 90.9 °F 93.5 °F 66.2 °F 44% 30.14 in 10.0 mi WSW 3.5 mph - N/A   Scattered Clouds
1:15 PM 91.6 °F 93.1 °F 64.0 °F 40% 30.13 in 10.0 mi SW 3.5 mph - N/A   Scattered Clouds
1:35 PM 91.8 °F 93.4 °F 64.4 °F 40% 30.12 in 10.0 mi WSW 5.8 mph - N/A   Scattered Clouds
1:55 PM 92.7 °F 94.9 °F 64.8 °F 40% 30.12 in 10.0 mi SW 6.9 mph - N/A   Mostly Cloudy
2:15 PM 93.0 °F 95.0 °F 64.8 °F 39% 30.11 in 7.0 mi South 5.8 mph - N/A   Mostly Cloudy
2:35 PM 92.5 °F 93.7 °F 63.5 °F 38% 30.10 in 10.0 mi SW 6.9 mph - N/A   Mostly Cloudy
2:55 PM 90.9 °F 92.0 °F 63.7 °F 40% 30.09 in 10.0 mi WNW 3.5 mph - N/A   Scattered Clouds
3:15 PM 90.1 °F 91.2 °F 63.5 °F 41% 30.09 in 10.0 mi Calm Calm - N/A   Clear
3:35 PM 92.7 °F 93.6 °F 62.8 °F 37% 30.08 in 10.0 mi Calm Calm - N/A   Scattered Clouds
3:55 PM 92.5 °F 92.2 °F 60.3 °F 34% 30.08 in 10.0 mi SSW 8.1 mph - N/A   Mostly Cloudy
4:15 PM 94.6 °F 93.5 °F 58.1 °F 29% 30.07 in 10.0 mi SW 4.6 mph - N/A   Mostly Cloudy
4:35 PM 94.1 °F 93.5 °F 59.0 °F 31% 30.07 in 10.0 mi West 3.5 mph - N/A   Scattered Clouds
4:55 PM 94.1 °F 93.5 °F 59.0 °F 31% 30.07 in 10.0 mi NW 5.8 mph - N/A   Clear
5:15 PM 92.3 °F 91.6 °F 59.2 °F 33% 30.07 in 10.0 mi SW 3.5 mph - N/A   Clear
5:35 PM 93.4 °F 92.8 °F 59.5 °F 32% 30.07 in 10.0 mi SW 5.8 mph - N/A   Scattered Clouds
5:55 PM 93.2 °F 92.6 °F 59.5 °F 32% 30.07 in 10.0 mi WSW 3.5 mph - N/A   Scattered Clouds
6:15 PM 92.7 °F 91.8 °F 58.6 °F 32% 30.07 in 10.0 mi WSW 5.8 mph - N/A   Clear
6:35 PM 91.8 °F 91.5 °F 60.8 °F 35% 30.07 in 10.0 mi West 4.6 mph - N/A   Clear
6:55 PM 90.9 °F 91.3 °F 61.7 °F 38% 30.07 in 10.0 mi WSW 5.8 mph - N/A   Clear
7:15 PM 89.4 °F 90.2 °F 62.8 °F 41% 30.08 in 10.0 mi Calm Calm - N/A   Clear
7:35 PM 87.1 °F 88.3 °F 63.9 °F 46% 30.07 in 10.0 mi SSW 4.6 mph - N/A   Clear
7:55 PM 85.3 °F 87.6 °F 66.2 °F 53% 30.07 in 10.0 mi Calm Calm - N/A   Clear
8:15 PM 84.4 °F 87.1 °F 66.9 °F 56% 30.07 in 10.0 mi SSW 3.5 mph - N/A   Clear
8:35 PM 83.7 °F 86.0 °F 66.6 °F 56% 30.08 in 10.0 mi South 9.2 mph 18.4 mph N/A   Clear
8:55 PM 82.8 °F 85.1 °F 66.4 °F 58% 30.09 in 10.0 mi SSW 8.1 mph - N/A   Clear
9:15 PM 81.9 °F 84.1 °F 66.2 °F 59% 30.09 in 10.0 mi SSW 10.4 mph - N/A   Clear
9:35 PM 81.1 °F 83.2 °F 65.8 °F 60% 30.09 in 10.0 mi SSW 10.4 mph - N/A   Clear
9:55 PM 80.6 °F 82.4 °F 65.3 °F 59% 30.10 in 10.0 mi SW 8.1 mph - N/A   Clear
10:15 PM 79.7 °F - 64.9 °F 61% 30.10 in 10.0 mi SW 8.1 mph - N/A   Clear
10:35 PM 79.7 °F - 64.4 °F 59% 30.11 in 10.0 mi SW 6.9 mph - N/A   Clear
10:55 PM 78.3 °F - 64.6 °F 63% 30.11 in 10.0 mi SW 6.9 mph - N/A   Clear
11:15 PM 77.4 °F - 64.8 °F 65% 30.10 in 10.0 mi SW 5.8 mph - N/A   Clear
11:35 PM 77.0 °F - 64.6 °F 65% 30.11 in 10.0 mi SW 6.9 mph - N/A   Clear
11:55 PM 76.3 °F - 64.6 °F 67% 30.10 in 10.0 mi SW 6.9 mph - N/A   Clear